| time (UTC) | temp F | wind direction | speed knots | gust knots | rain 1hr in | rain 24hr in | rain mn in | humidity % | barometer mb |
| 20260502130330 | 75 | 318 | 2.6 | 6.1 | 0.00 | 0.00 | 0.00 | 41 | 965.2 |
| 20260502123329 | 75 | 306 | 2.6 | 7.0 | 0.00 | 0.00 | 0.00 | 42 | 965.5 |
| 20260502120330 | 75 | 292 | 0.9 | 2.6 | 0.00 | 0.00 | 0.00 | 43 | 965.8 |
| 20260502113331 | 74 | 286 | 1.7 | 4.3 | 0.00 | 0.00 | 0.00 | 43 | 966.0 |
| 20260502110329 | 73 | 270 | 2.6 | 5.2 | 0.00 | 0.00 | 0.00 | 42 | 966.5 |
| 20260502103329 | 73 | 272 | 1.7 | 4.3 | 0.00 | 0.00 | 0.00 | 41 | 966.8 |
| 20260502100329 | 72 | 5 | 0.0 | 1.7 | 0.00 | 0.00 | 0.00 | 39 | 967.3 |
| 20260502090331 | 69 | 264 | 2.6 | 4.3 | 0.00 | 0.00 | 0.00 | 43 | 967.8 |
| 20260502070330 | 66 | 68 | 0.0 | 0.0 | 0.00 | 0.00 | 0.00 | 48 | 968.2 |
| 20260502063329 | 64 | 68 | 0.0 | 0.9 | 0.00 | 0.00 | 0.00 | 52 | 968.3 |
| 20260502060331 | 59 | 68 | 0.9 | 1.7 | 0.00 | 0.00 | 0.00 | 58 | 967.9 |
| 20260502053330 | 57 | 68 | 0.0 | 1.7 | 0.00 | 0.00 | 0.00 | 54 | 967.9 |
| 20260502050329 | 54 | 79 | 0.0 | 0.9 | 0.00 | 0.00 | 0.00 | 56 | 967.9 |
| 20260502043329 | 53 | 68 | 0.0 | 0.0 | 0.00 | 0.00 | 0.00 | 57 | 967.7 |
| 20260502040330 | 53 | 68 | 0.9 | 0.9 | 0.00 | 0.00 | 0.00 | 56 | 967.9 |
| 20260502033330 | 53 | 90 | 0.0 | 0.9 | 0.00 | 0.00 | 0.00 | 56 | 967.8 |
| 20260502030329 | 55 | 90 | 0.0 | 0.9 | 0.00 | 0.00 | 0.00 | 54 | 967.9 |
| 20260502023331 | 55 | 68 | 0.0 | 0.0 | 0.00 | 0.00 | 0.00 | 53 | 968.0 |
| 20260502020330 | 59 | 90 | 0.0 | 2.6 | 0.00 | 0.00 | 0.00 | 46 | 968.0 |
| 20260502013329 | 60 | 90 | 1.7 | 7.0 | 0.00 | 0.00 | 0.00 | 43 | 968.1 |
| 20260502010331 | 60 | 93 | 0.9 | 4.3 | 0.00 | 0.00 | 0.00 | 43 | 968.3 |
| 20260502003331 | 60 | 93 | 4.3 | 7.8 | 0.00 | 0.00 | 0.00 | 44 | 968.4 |
| 20260502000332 | 60 | 68 | 1.7 | 7.8 | 0.00 | 0.00 | 0.00 | 44 | 968.6 |
| 20260501233331 | 62 | 100 | 5.2 | 11.3 | 0.00 | 0.00 | 0.00 | 41 | 968.6 |
| 20260501230330 | 60 | 110 | 0.9 | 5.2 | 0.00 | 0.00 | 0.00 | 43 | 968.7 |
| 20260501223330 | 60 | 68 | 2.6 | 7.0 | 0.00 | 0.00 | 0.00 | 42 | 968.7 |
| 20260501220330 | 61 | 85 | 5.2 | 8.7 | 0.00 | 0.00 | 0.00 | 42 | 968.8 |
| 20260501213331 | 61 | 68 | 2.6 | 5.2 | 0.00 | 0.00 | 0.00 | 42 | 968.8 |
| 20260501210330 | 59 | 90 | 4.3 | 6.1 | 0.00 | 0.00 | 0.00 | 47 | 968.7 |
| 20260501203329 | 59 | 68 | 4.3 | 6.1 | 0.00 | 0.00 | 0.00 | 45 | 968.9 |
| 20260501200331 | 59 | 68 | 4.3 | 7.8 | 0.00 | 0.00 | 0.00 | 43 | 968.6 |
| 20260501193329 | 60 | 90 | 2.6 | 6.1 | 0.00 | 0.00 | 0.00 | 42 | 968.3 |
| 20260501190331 | 62 | 90 | 1.7 | 6.1 | 0.00 | 0.00 | 0.00 | 40 | 968.3 |
| 20260501183331 | 65 | 68 | 0.0 | 0.0 | 0.00 | 0.00 | 0.00 | 36 | 968.2 |
| 20260501180329 | 69 | 77 | 0.9 | 2.6 | 0.00 | 0.00 | 0.00 | 30 | 967.7 |
| 20260501173330 | 72 | 68 | 0.9 | 7.8 | 0.00 | 0.00 | 0.00 | 26 | 967.7 |
| 20260501170330 | 73 | 90 | 2.6 | 5.2 | 0.00 | 0.00 | 0.00 | 26 | 967.6 |
| 20260501163330 | 73 | 72 | 2.6 | 5.2 | 0.00 | 0.00 | 0.00 | 25 | 967.9 |
| 20260501160328 | 73 | 90 | 4.3 | 7.8 | 0.00 | 0.00 | 0.00 | 25 | 968.1 |
| 20260501153331 | 74 | 84 | 2.6 | 7.8 | 0.00 | 0.00 | 0.00 | 23 | 968.1 |
| 20260501150329 | 74 | 89 | 2.6 | 7.0 | 0.00 | 0.00 | 0.00 | 22 | 968.3 |
| 20260501143330 | 75 | 248 | 0.9 | 0.9 | 0.00 | 0.00 | 0.00 | 29 | 968.5 |
| 20260501140330 | 74 | 300 | 0.9 | 2.6 | 0.00 | 0.00 | 0.00 | 28 | 968.8 |
| 20260501133329 | 73 | 68 | 2.6 | 6.1 | 0.00 | 0.00 | 0.00 | 25 | 969.0 |